{"data":{"norad_id":64823,"epoch":"2026-09-21T20:59:42.817632Z","epoch_age_seconds":55688,"freshness":"FRESH","line1":"1 64823U 25151H   26264.87480113  .00001874  00000+0  27475-3 0  9996","line2":"2 64823  51.9019 145.5712 0001000  91.3307 268.7770 14.79937494 64463","mean_motion":14.79937494,"eccentricity":0.0001,"inclination_deg":51.9019,"raan_deg":145.5712,"arg_perigee_deg":91.3307,"mean_anomaly_deg":268.777,"bstar":0.00027475,"rev_number":6446,"period_min":97.30140670387,"perigee_km":628.82067692223,"apogee_km":630.22220861078,"semimajor_km":7007.6584427665,"source":"CELESTRAK","updated_at":"2026-09-22T09:00:29.974931Z"}}